カタログに戻る

STARLINK-35392

運用中通信VLEO
NORAD 65823·PAYLOAD·🇺🇸 United States

打ち上げ Sep 29, 2025 から Vandenberg Space Force Base

Loading…

次のパス (今後24時間)

TLE

最新Source: CelesTrak SupGP

元期: Sep 14, 2026, 22:42 UTC

1 65823C 25221A   26257.94631944  .00056120  00000+0  16583-2 0  2573
2 65823  53.1580 287.5434 0001075  89.5032 276.6684 15.34358437    14

AllMySatでSTARLINK-35392をリアルタイム追跡

Download on the App Store